Weather in Sampur

Russia / Tambov Oblast     52°18′39″N   41°37′28″E
temp.,
°C
wind,
m/s
gust,
m/s
humid.,
%
clouds,
%
prec.,
mm/h
press.,
hPa
HPBL,
m
5 march, fri
fri500:000wsw51196100 0.1 1002568
03:000wsw61198100 0.3 1002559
06:00−1wnw61193100 0.2 1003565
09:00−3nw5994100 0.3 1006509
12:00−2nw358883 0.0 1009508
15:00−2nw368748 0.0 1011553
18:00−6w22913 0.0 101321
21:00−7wnw239432 0.0 101521
6 march, sat
sat600:00−8nw239283 0.0 101621
03:00−10nw119388 0.0 101721
06:00−9ne0194100 0.0 101621
09:00−7e1194100 0.0 101751
12:00−5e1289100 0.0 1016243
15:00−4e1289100 0.0 1015317
18:00−8ene119499 0.0 101521
21:00−8nne119793 0.1 101621
7 march, sun
sun700:00−9nw339789 0.2 101677
03:00−12wnw349473 0.3 101638
06:00−13wsw34950 0.0 101771
09:00−9sw611900 0.0 1016342
12:00−5sw8138279 0.0 1012987
15:00−3sw9167690 0.0 10081149
18:00−3sw101888100 0.1 10041149
21:00−5nw91582100 1.6 1004734
8 march, mon
mon800:00−9wsw5108272 0.0 1006158
03:00−10sw5108446 0.0 1006189
06:00−8sw51281100 0.0 1004281
09:00−5ssw4896100 0.5 1002424
12:00−2w81387100 1.8 10001250
15:00−5wnw9137683 2.1 10031228
18:00−9w7167740 0.0 1007613
21:00−11w5138420 0.0 1010323
9 march, tue
tue900:00−12w511880 0.0 1011225
03:00−13w47920 0.0 1012109
06:00−14wsw34940 0.0 101346
09:00−12w249526 0.0 1014140
12:00−9nw2390100 0.1 1013331
15:00−7nw3489100 0.1 1014533
18:00−10nnw3694100 0.1 1014233
21:00−14nw5109498 0.1 1017253